This is the latest recevied weather packets stored in our database for station/object NN3A-3. If no packets are shown the sender has not sent any weather packets the latest 10 day(s).
| Time | Temp. | Humidity | Pressure | Rain* | Wind** | Luminosity | Snow |
|---|---|---|---|---|---|---|---|
| 1777470748 | 14.44° C | 100% | 1011 hPa | 0 mm | - | - | - |
| 1777470448 | 14.44° C | 100% | 1010.6 hPa | 0 mm | - | - | - |
| 1777469848 | 13.89° C | 100% | 1010.6 hPa | 0 mm | - | - | - |
| 1777469549 | 14.44° C | 100% | 1010.6 hPa | 0 mm | - | - | - |
| 1777468949 | 13.33° C | 100% | 1011 hPa | 0 mm | - | - | - |
| 1777468349 | 13.33° C | 100% | 1011 hPa | 0 mm | - | - | - |
| 1777468050 | 13.89° C | 100% | 1011 hPa | 0 mm | - | - | - |
| 1777467749 | 13.89° C | 100% | 1011.3 hPa | 0 mm | - | - | - |
| 1777467449 | 13.89° C | 100% | 1011 hPa | 0 mm | - | - | - |
| 1777467150 | 13.89° C | 100% | 1011 hPa | 0 mm | - | - | - |
| 1777466850 | 13.89° C | 100% | 1011 hPa | 0 mm | - | - | - |
| 1777466550 | 13.33° C | 100% | 1011 hPa | 0 mm | - | - | - |
| 1777466250 | 12.78° C | 100% | 1011 hPa | 0 mm | - | - | - |
| 1777465950 | 12.78° C | 100% | 1011 hPa | 0 mm | - | - | - |
| 1777465650 | 13.33° C | 100% | 1011.3 hPa | 0 mm | - | - | - |
| 1777465351 | 13.33° C | 100% | 1011.3 hPa | 0 mm | - | - | - |
| 1777464451 | 12.78° C | 100% | 1011.3 hPa | 0 mm | - | - | - |
| 1777464152 | 12.78° C | 100% | 1011.3 hPa | 0 mm | - | - | - |
| 1777463552 | 12.78° C | 100% | 1011.3 hPa | 0 mm | - | - | - |
| 1777463252 | 12.78° C | 100% | 1011.3 hPa | 0 mm | - | - | - |
| 1777462951 | 12.22° C | 100% | 1011.3 hPa | 0 mm | - | - | - |
| 1777462352 | 12.22° C | 100% | 1011.6 hPa | 0 mm | - | - | - |
| 1777462052 | 12.22° C | 100% | 1011.6 hPa | 0 mm | - | - | - |
| 1777461754 | 11.67° C | 100% | 1011.6 hPa | 0 mm | - | - | - |
| 1777461453 | 12.22° C | 100% | 1011.6 hPa | 0 mm | - | - | - |
* Rain latest hour (hover to see other rain measurements)
** Current wind speed in m/s (hover to see current wind gust speed)